Tracking 29747 objects as of 10-Oct-2024
HD Live streaming from Space Station
objects crossing your sky now

FLOCK 4Q 25

Track FLOCK 4Q 25 now!
10-day predictions
FLOCK 4Q 25 is classified as:


NORAD ID: 58303
Int'l Code: 2023-174AZ
Perigee: 493.0 km
Apogee: 506.3 km
Inclination: 97.4 °
Period: 94.5 minutes
Semi major axis: 6870 km
RCS: Unknown
Launch date: November 11, 2023
Source: United States (US)
Launch site: AIR FORCE WESTERN TEST RANGE (AFWTR)
Your satellite tracking list
Your tracking list is empty




NASA's NSSDC Master Catalog

Two Line Element Set (TLE):
1 58303U 23174AZ  24283.78086045  .00029309  00000-0  11925-2 0  9996
2 58303  97.4418 357.2344 0009676 174.1219 186.0134 15.24430520 51145
Source of the keplerian elements: AFSPC